Location: Newark
(39.6867°N, 100.6772°W)
Time: 23:07:24
(UTC+00:00)

Vanguard 1 Rocket - Pass Details

Date: 30 October 2019
Orbit: 651 x 4226 km, 34.3° (Epoch: 22 November)

Event Time Altitude Azimuth Distance (km) Brightness Sun altitude
Rises 20:10:01 0° 281° (W) 6,047 11.8 31.2°
Reaches altitude 10° 20:13:30 10° 276° (W) 5,429 11.7 30.9°
Maximum altitude 20:30:33 50° 208° (SSW) 4,415 12.5 29.1°
Drops below altitude 10° 20:54:47 10° 142° (SE) 7,373 12.2 26.3°
Sets 21:00:40 0° 138° (SE) 8,248 12.3 25.5°
